Regional Weather Roundup
Issued by NWS

Home | Current Version | Previous Version | Graphics & Text | Print | Product List | Glossary On
Versions: 1 2 3 4 5 6 7 8 9 10 11 12 13 14 15 16 17 18 19 20 21 22 23 24 25 26 27 28 29 30 31 32 33 34 35 36 37 38 39 40 41 42 43 44 45 46 47 48 49 50
126
ASUS44 KMEG 140910
RWRTN
TENNESSEE HOURLY STATE WEATHER ROUNDUP
NATIONAL WEATHER SERVICE MEMPHIS TN
300 AM CST SUN FEB 14 2016

TNZ002-004-019-021-049-052-054-088>092-141000-
WEST TENNESSEE

CITY           SKY/WX    TMP DP  RH WIND       PRES   REMARKS
MEMPHIS INTL   CLOUDY    32   8  36 E9        30.28F WCI  24
NWS MEMPHIS      N/A     30 N/A N/A MISG        N/A
JACKSON        CLOUDY    26   9  48 E5        30.33R WCI  20
DYERSBURG      CLOUDY    28  10  47 E10       30.32F WCI  19
UNION CITY     CLOUDY    27   7  43 SE5       30.33F WCI  21
PARIS          CLOUDY    25   7  46 E7        30.33S WCI  17
LEXINGTON      CLEAR     25   3  39 E6        30.32R WCI  18
$$

TNZ008-025-027-028-033-062-065-066-141000-
NORTH MIDDLE TENNESSEE

CITY           SKY/WX    TMP DP  RH WIND       PRES   REMARKS
NASHVILLE      CLOUDY    27   4  37 E7        30.37F WCI  19
CLARKSVILLE    CLOUDY    26   8  46 E9        30.36F WCI  17
SMYRNA         CLOUDY    26   6  42 E6        30.38F WCI  19
COOKEVILLE     CLOUDY    23   7  50 CALM      30.34S
CROSSVILLE     CLOUDY    21   5  50 E6        30.29F WCI  13
$$

TNZ061-075-076-078-094-096-097-141000-
SOUTH MIDDLE TENNESSEE

CITY           SKY/WX    TMP DP  RH WIND       PRES   REMARKS
FAYETTEVILLE   MOCLDY    25  10  54 NE7       30.30F WCI  17
TULLAHOMA      CLOUDY    25   5  42 E6        30.32F WCI  18
WINCHESTER     CLOUDY    27   7  43 E7        30.33F WCI  19
MCMINNVILLE    CLOUDY    25   7  46 E7        30.33S WCI  17
COLUMBIA       MOCLDY    25  10  54 E5        30.31F WCI  19
SHELBYVILLE    CLOUDY    27  10  50 E6        30.34F WCI  20
$$

TNZ017-018-042-046-047-141000-
NORTHEAST TENNESSEE

CITY           SKY/WX    TMP DP  RH WIND       PRES   REMARKS
TRI CITIES     CLOUDY    13   7  77 CALM      30.38S
$$

TNZ012-013-036-069-073-074-141000-
CENTRAL EAST TENNESSEE

CITY           SKY/WX    TMP DP  RH WIND       PRES   REMARKS
KNOXVILLE      CLOUDY    22   6  50 NE6       30.39R WCI  14
OAK RIDGE      CLOUDY    23   6  48 NE5       30.41F WCI  17
GATLINBURG     CLOUDY    18   9  68 NE5       30.38S WCI  11
MORRISTOWN     CLOUDY    18   5  57 E6        30.35F WCI   9
$$

TNZ083-085-099-141000-
SOUTHEAST TENNESSEE

CITY           SKY/WX    TMP DP  RH WIND       PRES   REMARKS
CHATTANOOGA    CLOUDY    27   5  39 NE10      30.36F WCI  17
$$

SKY/WX REPORTED AS FAIR MEANS FEW OR NO CLOUDS BELOW
12 THOUSAND FEET.





USA.gov is the U.S. government's official web portal to all federal, state and local government web resources and services.